User: anonymous   Login
Location: Caltech
(34.1382°N, 118.1253°W)
Time: 02:30:05
(UTC-07:00)
Language:

PAYLOAD A - Orbit

View from above orbital plane
View from above orbital plane
View from above satellite
View from above satellite

Ground track
Ground track

The orbit data is extracted from the following two-line orbital elements,

1 27840U 03031A   17296.95140777 -.00000017 +00000-0 +76980-5 0  9997
2 27840 098.2139 288.9675 0099502 090.9401 270.3189 14.38890469751733
Epoch (UTC): 23 October 2017 22:50:01
Eccentricity: 0.0099502
inclination: 98.2139°
perigee height: 691 km
apogee height: 833 km
right ascension of ascending node: 288.9675°
argument of perigee: 90.9401°
revolutions per day: 14.38890469
mean anomaly at epoch: 270.3189°
orbit number at epoch: 75173

The dashed part of the orbit path shows where the satellite is in the earth's shadow,  

DLR